GFSGL_250_spd_336.txt.gz
Wind_Speed
73 80 83 94 106 125 133 135 136 136 133 130 130 124 125 125 120 120 118 109 104 101 102 95 93 90 89 88 85 80 80 79 76 78 75 75 76 78 81 81 80 75 76
75 79 84 89 97 109 131 138 140 138 138 137 134 133 130 126 124 125 122 118 114 107 104 103 102 99 94 90 88 86 81 79 77 79 76 74 78 81 82 84 80 80 77
77 81 85 90 94 101 111 130 139 142 141 140 140 137 134 132 131 129 124 122 121 120 117 114 112 109 106 102 96 92 89 85 81 81 79 77 79 82 82 83 81 79 76
81 83 86 90 94 98 103 112 127 140 143 144 143 143 139 137 135 132 131 130 127 123 118 116 114 114 111 107 103 100 96 93 89 85 84 81 80 81 79 82 78 77 74
81 85 88 91 95 98 101 105 113 122 138 145 146 146 145 144 141 139 138 134 131 128 127 125 124 120 116 114 113 108 102 98 92 87 81 79 78 74 71 76 77 75 71
80 85 88 92 96 99 102 104 108 113 119 130 143 147 146 147 147 146 143 141 141 138 135 132 129 127 126 121 117 114 108 104 100 99 94 90 87 83 80 79 80 76 70
79 83 88 93 97 99 101 104 105 109 112 117 123 131 140 147 148 146 146 146 145 141 138 136 133 130 128 124 120 117 112 106 102 98 95 89 83 79 78 79 74 71 65
78 82 85 90 96 100 102 105 107 108 109 113 116 120 123 127 134 141 146 145 143 142 142 141 137 132 128 126 122 118 116 110 100 93 88 85 83 81 80 76 72 65 59
78 81 85 88 94 99 104 106 109 111 112 111 113 116 118 119 120 120 125 131 137 138 138 137 134 131 127 124 119 113 110 104 99 91 86 81 79 76 72 70 65 61 56
76 79 82 86 90 95 102 106 108 111 112 113 114 113 115 117 117 116 115 114 116 118 119 120 122 121 118 117 113 107 100 96 89 85 82 81 77 75 74 69 65 57 55
75 77 80 83 88 92 96 101 106 110 111 113 114 115 114 114 115 115 114 112 109 107 106 105 105 103 102 102 98 92 89 87 83 80 79 78 75 73 67 64 56 54 53
73 76 78 81 84 87 90 96 100 104 108 111 112 113 114 115 114 113 113 111 109 107 104 102 99 95 90 88 87 88 87 84 82 80 78 76 73 70 64 60 58 53 49
69 72 74 78 82 85 87 90 94 98 102 107 110 113 113 113 113 113 111 111 111 109 107 103 100 95 90 84 81 76 78 79 80 82 78 76 73 65 58 55 48 45 46
64 68 72 75 77 79 82 87 91 93 97 102 104 107 111 113 114 113 112 110 110 109 108 103 101 97 93 86 83 76 74 68 69 70 70 69 68 65 56 48 44 44 42
58 64 68 71 75 77 78 82 85 90 93 96 100 103 106 109 112 112 112 111 110 109 107 106 104 101 95 91 85 80 74 70 67 67 69 67 64 64 57 47 44 41 40
56 60 65 68 70 74 77 79 81 85 90 92 95 97 100 105 108 109 111 111 110 108 107 106 103 107 104 98 92 87 79 72 67 67 68 66 65 61 55 49 48 47 45
48 54 60 64 67 70 72 75 78 82 85 87 90 92 95 98 101 103 106 107 108 107 107 107 104 100 98 97 100 93 86 77 70 67 67 65 61 58 57 51 47 46 44
42 46 51 56 60 64 69 71 73 75 77 82 85 87 88 90 92 94 97 100 102 103 104 105 104 100 98 93 95 97 90 81 74 70 67 66 62 59 58 55 48 46 45
42 44 46 49 53 57 62 66 69 71 74 75 77 77 78 80 84 84 84 89 96 96 98 102 102 102 98 94 93 97 94 85 79 74 69 65 62 60 58 57 51 48 46
38 40 43 45 48 50 53 58 62 66 70 72 71 73 75 75 75 78 79 80 84 89 89 94 99 99 99 95 93 97 97 91 83 78 74 68 64 61 58 57 56 51 48
36 36 37 40 44 46 48 51 55 58 61 66 67 67 69 70 72 75 76 76 79 80 83 85 92 95 96 95 94 94 99 95 87 83 79 74 68 66 62 59 59 54 50
32 32 33 35 36 39 41 44 47 50 54 56 59 60 59 63 68 70 71 71 76 77 76 78 85 89 91 95 94 94 98 100 93 88 83 78 71 68 64 61 55 52 49
26 27 27 29 30 31 33 37 40 43 45 49 51 53 56 60 64 66 65 66 69 73 74 73 80 85 87 92 94 95 94 101 100 95 87 82 77 73 68 64 61 55 50
21 21 22 23 25 26 27 29 32 36 38 39 42 46 49 54 58 60 62 63 67 70 71 72 77 83 85 89 94 94 95 96 102 100 92 86 81 76 72 64 63 55 50
19 19 18 19 21 21 22 23 25 28 32 35 37 40 44 50 54 57 59 60 61 65 68 72 76 81 84 87 92 95 95 95 98 101 96 89 83 78 73 69 65 57 51
17 17 17 16 16 17 17 18 19 22 25 29 33 38 40 44 49 54 58 58 59 63 66 71 76 79 83 86 91 94 94 95 95 96 98 92 85 79 74 71 67 59 55

GFSGL_250_spd_339.txt.gz
Wind_Speed
88 89 88 89 91 92 103 112 123 134 141 142 141 135 134 130 127 123 121 119 108 103 103 99 92 88 87 85 83 78 80 79 79 78 78 75 74 75 77 80 77 79 80
89 92 95 93 96 96 98 108 114 127 136 144 145 144 138 136 132 130 125 124 121 110 102 104 99 95 84 83 79 79 76 74 73 75 75 79 80 80 72 65 71 80 81
89 92 96 96 96 100 102 102 111 116 130 139 145 147 144 141 137 130 131 129 127 122 115 106 107 104 99 95 91 88 84 81 76 82 82 76 73 78 73 76 78 83 83
89 90 92 98 98 99 102 106 107 113 119 132 142 147 148 146 142 138 132 132 133 130 124 113 110 107 105 99 96 93 89 86 87 84 82 81 82 83 82 82 82 85 83
84 89 91 93 98 99 101 106 108 109 112 122 133 143 148 147 146 143 140 137 134 133 130 129 120 116 112 110 107 102 100 97 96 95 95 96 96 95 92 90 94 89 86
77 81 86 91 97 99 100 103 109 110 110 112 122 132 143 146 149 147 144 142 139 136 133 130 130 125 121 117 112 110 109 106 104 104 103 103 100 99 95 92 92 87 88
71 77 81 86 95 98 100 102 106 110 112 111 113 121 129 140 146 148 148 146 144 141 139 135 133 128 126 124 124 122 121 117 114 112 109 107 105 101 97 97 98 95 92
66 72 77 82 88 94 98 102 104 108 111 112 111 114 121 127 137 144 147 150 147 144 142 140 136 134 132 129 127 126 123 120 120 120 115 113 109 106 106 104 104 101 100
64 67 73 78 83 89 94 99 103 105 109 112 113 111 113 119 126 132 139 144 147 149 146 142 139 138 135 133 131 130 128 126 125 122 118 113 112 111 110 107 105 104 95
62 64 68 74 78 83 88 93 99 103 107 111 113 114 112 111 116 121 126 132 140 142 144 145 143 140 137 137 135 133 131 130 128 126 125 122 119 116 113 111 106 95 88
55 59 63 67 73 78 82 86 92 98 103 107 112 114 114 113 112 113 117 119 121 125 130 135 140 138 138 136 131 130 129 128 127 125 124 122 119 118 112 100 93 82 72
51 54 58 61 66 71 77 81 85 90 96 102 105 109 113 115 114 113 112 112 116 116 115 116 118 123 125 125 124 119 115 113 114 113 113 110 102 96 91 85 72 66 59
49 51 54 59 63 67 72 76 81 86 89 94 98 104 107 111 114 115 114 113 112 110 110 110 109 107 106 105 104 101 98 91 83 81 78 80 76 73 69 63 61 58 54
50 54 56 58 60 65 69 74 78 82 87 90 93 96 101 104 109 112 114 114 112 110 109 106 104 102 101 101 99 95 90 83 76 70 66 63 61 59 61 61 59 56 52
49 53 55 58 62 65 67 71 75 79 83 87 91 95 98 99 103 104 108 110 110 110 109 107 104 100 98 98 95 92 88 82 76 70 62 59 57 55 53 56 57 55 51
45 50 54 57 60 63 66 69 71 75 80 83 87 90 94 97 99 100 102 103 105 107 108 108 106 102 99 95 95 91 88 84 78 71 65 61 59 54 49 50 49 47 45
39 45 50 54 58 61 63 65 67 70 75 78 83 87 90 92 95 97 99 100 101 101 103 105 106 105 102 98 94 96 91 88 81 75 66 61 59 55 51 49 46 46 43
35 38 43 49 54 57 60 62 66 69 70 75 78 82 85 88 91 92 94 95 96 98 100 101 103 104 103 100 95 93 95 93 87 80 70 65 60 56 51 49 47 45 45
38 38 38 41 45 50 54 58 61 65 68 71 75 77 81 84 84 85 87 88 93 95 96 98 99 101 102 100 98 95 93 91 93 88 76 69 65 61 52 50 49 47 44
41 40 39 41 40 43 46 49 53 59 63 67 70 75 76 76 77 78 80 81 85 87 91 94 96 96 98 98 97 96 95 92 87 89 84 73 68 63 58 52 50 48 44
42 42 40 39 41 40 41 43 45 50 57 61 66 68 69 69 72 73 72 72 77 80 81 86 90 91 92 94 95 94 93 94 90 85 90 84 77 70 64 55 53 50 47
38 40 40 40 40 41 40 40 41 43 47 53 59 61 60 61 64 67 68 67 68 72 75 77 80 84 85 86 91 92 92 91 91 88 85 86 85 81 71 59 54 50 48
36 38 40 40 40 38 38 38 37 39 41 46 49 52 54 55 58 60 59 60 63 66 69 70 75 79 81 80 84 89 90 92 91 89 86 84 78 76 72 63 58 52 50
36 36 38 38 36 36 36 35 34 35 37 39 42 44 46 46 50 55 56 54 57 61 67 72 75 77 77 76 80 85 89 92 91 89 87 85 83 78 74 66 61 56 53
33 34 34 35 34 32 32 31 30 31 33 35 37 39 41 43 45 49 53 55 56 61 66 71 76 78 77 75 78 84 88 90 91 89 89 86 86 80 77 70 64 59 57
30 31 33 33 32 30 28 27 26 26 29 31 32 34 37 40 45 47 50 55 58 60 64 67 71 74 78 76 78 84 87 90 92 90 90 87 88 83 79 74 68 64 60

GFSGL_250_spd_342.txt.gz
Wind_Speed
83 88 92 92 95 97 99 100 102 110 116 126 140 141 141 142 139 135 133 131 126 121 117 105 97 92 89 89 90 91 88 87 77 82 79 73 68 67 68 72 75 74 78
83 89 90 94 96 98 100 101 103 105 112 118 126 144 147 143 141 138 136 132 133 130 126 118 109 96 91 90 87 84 88 89 88 86 83 81 79 78 70 77 75 70 74
80 86 95 97 101 103 104 105 104 105 109 115 119 126 145 150 147 144 139 135 133 132 131 123 124 112 99 93 88 88 86 82 80 80 78 74 77 74 74 67 69 69 63
72 77 84 94 105 106 109 109 110 109 108 111 118 122 127 143 152 149 146 140 136 135 131 130 120 122 120 107 100 94 89 85 83 78 76 73 67 68 70 73 73 66 64
64 71 78 84 94 107 111 113 114 112 112 112 113 120 125 129 141 154 152 143 140 138 136 134 129 122 121 124 115 102 97 94 89 80 74 75 72 67 68 72 73 77 83
61 66 71 77 85 97 109 113 116 115 113 113 113 114 121 126 131 140 152 153 148 143 143 139 135 133 127 119 119 118 110 99 95 92 90 92 89 87 87 84 83 83 88
55 61 67 70 76 85 98 106 112 115 115 114 113 114 116 122 125 131 138 147 152 152 148 145 141 138 134 132 125 115 116 116 110 102 98 93 92 89 88 92 91 94 93
49 55 61 65 70 74 85 98 108 111 113 113 115 115 115 118 121 124 128 135 143 148 152 151 148 144 141 137 133 129 123 119 115 109 102 103 98 96 98 100 98 97 100
46 50 55 61 67 72 76 85 96 104 109 112 113 114 117 116 119 121 124 125 129 136 144 148 152 150 147 144 139 136 128 124 123 123 118 111 108 107 105 107 105 105 104
45 47 50 55 61 67 72 77 84 92 100 108 111 112 115 116 115 117 120 123 121 124 128 134 139 144 146 146 144 141 136 131 128 125 124 122 120 116 114 112 109 108 109
42 45 48 50 56 61 67 73 78 84 90 96 104 108 112 114 116 116 116 116 116 114 115 114 120 127 134 139 140 139 137 135 133 130 127 125 123 121 118 116 114 112 109
41 42 47 49 52 57 62 68 73 78 82 88 95 104 110 112 114 114 116 113 114 112 110 109 109 112 115 118 126 130 133 132 131 131 129 127 123 121 119 116 116 114 111
37 41 43 46 51 55 59 64 69 73 77 80 85 93 102 108 111 112 112 114 112 112 109 108 106 104 103 104 110 112 114 113 115 117 119 121 121 120 117 113 107 104 98
35 37 40 43 44 50 56 61 65 70 74 77 80 85 93 101 105 107 110 113 113 112 111 108 106 104 101 100 99 98 100 100 99 93 89 87 89 91 93 85 75 69 61
34 35 36 40 44 47 50 56 61 67 71 76 79 82 85 90 97 102 105 107 110 113 112 110 109 105 101 97 95 92 90 88 87 86 79 73 69 64 59 56 52 49 43
30 32 35 36 39 43 47 52 56 63 67 72 78 82 85 87 89 92 96 101 104 107 110 111 109 108 105 99 97 92 88 83 81 79 74 68 64 60 54 50 45 40 37
38 33 28 32 38 40 43 47 52 58 62 66 72 77 82 86 89 89 92 95 97 100 105 107 109 109 107 104 100 95 90 85 80 74 71 66 63 58 53 50 43 40 36
37 38 37 34 33 36 41 45 48 52 56 62 65 70 75 79 84 86 88 92 94 95 99 102 105 107 107 105 102 98 93 88 83 78 73 67 63 58 52 51 46 42 38
38 37 37 38 37 37 38 40 44 50 52 55 60 63 69 72 77 79 81 84 90 93 97 99 100 102 103 104 103 100 96 91 85 80 77 72 66 61 54 52 48 43 41
39 39 37 38 39 39 40 41 41 41 47 52 53 58 61 65 69 73 76 77 81 89 92 94 97 98 99 99 100 101 99 95 89 85 79 76 72 65 59 52 47 45 40
40 38 39 36 39 40 40 39 39 39 40 45 50 51 54 59 62 66 70 71 76 80 84 88 90 92 94 95 96 97 98 97 93 88 83 78 75 72 65 57 51 45 43
39 37 38 38 36 38 39 40 40 39 39 40 42 45 47 52 57 60 64 67 71 75 78 80 81 84 88 91 91 93 96 97 95 92 86 81 76 74 71 63 57 50 47
37 37 37 39 37 36 37 38 39 39 38 39 40 41 43 46 50 55 59 61 63 67 71 73 75 76 80 83 86 88 90 95 95 93 89 83 79 76 73 72 64 57 52
38 36 35 36 39 38 37 36 37 38 38 38 38 38 39 42 45 49 54 57 57 58 62 68 70 72 75 78 80 80 84 89 93 94 91 87 82 78 76 73 69 62 56
40 36 32 33 36 36 36 35 35 36 35 35 36 36 36 38 41 44 48 52 53 53 55 59 67 70 72 76 77 77 77 83 88 91 92 88 85 80 79 74 72 66 61
36 37 32 30 33 33 33 33 34 34 32 32 34 34 34 35 38 41 43 47 50 52 53 56 62 67 69 72 76 76 74 77 85 89 89 89 88 82 80 78 74 72 64

GFSGL_250_spd_345.txt.gz
Wind_Speed
69 79 84 86 91 93 95 98 99 100 102 105 111 115 130 140 142 141 140 140 133 126 125 120 114 93 92 101 102 99 90 85 75 73 71 70 69 68 67 69 69 73 70
67 76 88 92 93 95 97 99 102 103 102 103 106 113 116 127 140 146 145 144 140 138 132 131 126 119 107 93 97 100 100 98 94 88 87 85 79 79 75 72 70 69 71
66 75 80 94 96 97 100 101 103 106 105 105 105 109 116 120 126 140 146 146 143 141 135 133 125 122 116 118 108 98 89 87 90 92 87 84 81 80 78 75 71 71 72
53 67 77 85 96 101 102 104 106 107 110 109 109 109 111 116 120 125 137 147 148 143 139 137 135 130 124 117 111 111 110 102 92 90 85 82 78 78 78 74 73 66 72
44 54 69 79 86 95 101 105 107 109 110 112 112 112 111 112 116 122 125 132 146 150 151 145 142 139 132 128 124 109 107 105 105 104 94 87 85 77 75 73 67 66 69
41 48 58 71 82 87 97 104 106 108 111 112 115 115 114 113 114 115 121 129 129 138 146 146 143 141 137 134 129 131 108 99 98 103 101 96 90 79 82 74 76 70 68
38 44 50 58 67 81 88 96 105 107 108 113 114 116 118 117 115 115 115 120 127 127 130 137 142 144 141 137 135 134 132 118 108 96 82 76 77 74 73 72 75 68 67
36 41 45 51 58 65 78 86 93 102 109 110 112 115 117 119 119 117 115 115 115 121 127 127 126 135 143 145 141 136 136 134 133 121 113 111 110 104 96 92 92 92 89
33 38 43 47 53 57 63 73 82 91 97 106 114 115 115 118 121 120 118 117 116 114 116 121 124 125 127 136 142 142 138 135 132 132 129 124 112 108 108 108 100 94 95
33 34 39 44 48 52 57 61 69 76 83 90 99 105 119 121 120 122 122 120 118 116 113 114 116 119 121 122 124 131 142 144 140 136 130 127 126 125 116 104 102 105 102
32 33 34 39 44 48 52 57 60 67 74 78 84 92 98 113 120 120 122 122 121 118 115 113 114 115 116 115 117 119 120 125 133 139 137 129 128 127 123 122 122 120 114
33 31 32 33 38 43 47 52 55 59 66 71 74 78 85 93 108 117 119 121 120 116 116 114 113 112 111 111 111 109 110 113 115 119 124 132 135 131 128 127 126 125 123
32 31 30 31 32 38 43 46 51 55 61 66 71 74 77 82 89 101 111 114 117 117 117 114 114 111 107 106 107 106 106 105 105 104 103 107 112 115 120 127 128 127 125
32 31 28 29 30 32 37 42 45 51 57 62 67 72 75 77 82 87 94 104 110 112 112 114 113 111 109 102 98 98 99 98 96 96 94 93 95 93 93 96 97 99 98
34 32 29 27 27 30 33 37 42 46 50 58 63 68 73 76 78 80 84 89 96 101 106 110 111 110 107 104 100 94 90 88 86 87 86 83 80 77 74 72 70 66 63
37 31 30 28 27 27 30 33 36 41 45 51 58 62 67 73 76 77 80 83 87 90 96 101 107 106 106 103 97 95 92 87 82 80 76 73 71 67 63 61 57 53 52
39 33 30 28 27 25 25 28 32 35 39 45 53 56 62 67 71 73 78 82 83 84 89 96 99 102 102 101 100 96 90 86 84 81 75 69 66 62 56 54 50 47 42
41 39 34 29 29 27 27 25 27 29 35 39 45 51 57 63 66 69 73 79 82 82 85 90 94 96 98 99 98 96 94 90 85 80 76 71 64 58 54 51 49 45 40
38 38 37 33 31 29 29 28 28 28 29 32 37 44 50 56 62 67 69 69 76 81 85 88 89 91 95 97 97 96 95 92 88 82 78 74 69 60 52 47 46 45 41
37 38 38 37 33 31 30 30 30 30 31 32 34 37 44 50 57 62 65 67 67 75 82 86 87 87 89 93 96 97 96 94 91 86 80 74 71 66 58 51 45 47 42
39 36 35 36 35 34 32 30 31 32 32 33 33 34 39 44 53 57 59 62 66 70 78 82 82 85 86 88 91 95 97 96 94 90 84 79 72 66 62 55 49 45 43
42 40 36 33 34 33 34 32 31 31 33 32 32 31 35 39 47 53 54 56 60 67 74 78 79 79 83 86 89 91 93 96 97 94 89 82 76 69 63 58 53 49 45
40 42 39 34 31 33 32 33 32 32 31 32 32 29 31 34 39 48 51 52 54 60 68 73 74 76 78 81 84 87 90 93 95 95 93 87 80 73 67 62 57 53 48
39 40 41 39 32 30 32 32 31 33 34 33 33 29 29 31 33 40 46 48 50 55 60 67 69 73 75 77 79 83 87 89 91 92 92 89 85 78 72 67 63 58 52
40 37 38 39 36 29 30 31 31 33 33 34 32 27 26 27 29 32 38 42 45 49 54 59 64 68 72 74 76 79 82 84 86 89 90 89 87 82 76 71 68 63 57
44 39 36 36 38 31 30 31 30 32 32 32 31 26 24 25 25 27 31 36 40 44 49 53 59 64 68 72 74 76 77 78 81 84 86 87 86 83 80 75 72 68 62